Torna al catalogo

COSMOS 2147

AttivoMilitarePO
NORAD 21303·PAYLOAD·🇷🇺 Russia

Lanciato May 16, 1991 da Plesetsk Cosmodrome

Loading…

Prossimi Passaggi (prossime 24 ore)

TLE

AggiornatoSource: Space-Track

Epoca: Sep 14, 2026, 07:28 UTC

1 21303U 91033E   26257.31116314  .00000012  00000-0  63419-5 0  9998
2 21303  82.5658 217.9577 0019271 155.6519 359.9990 12.65167699631416

Traccia COSMOS 2147 in tempo reale con AllMySat

Download on the App Store